"Pseudo-MPEC" for P10RmFL

Created 2019 Sep 12 12:07:17 UT using Find_Orb

Click here for an explanation of pseudo-MPECs

 
 Astrometry: 
     P10RmFL  C2019 09 047QpV#c3Si%q46EagUWkQY^Lp!H969D,I!I\VAstrometry%w(mg'F51
     P10RmFL  C2019 09 04U,H0=9nse@C@h\V\[+\eBTvGR$;?+p%TBm-j@r1clSFHi[duqOqLF51
     P10RmFL  C2019 09 04%X)YQiOWC0SjqD1C/t5t],U!['*RS0pe9*(3M%w'pnK[74UPP=\_F51
     P10RmFL KC2019 09 05qfIIsYt^L$!Uk(4i/^74?)Hu/S%M5dE-Qn0$M*cb/.FwwV\4D!=mH21
     P10RmFL KC2019 09 05v'F!.5@SvKH-OOk8).0lWj9gL'1redacted;'yX$clickXY4HSAxH21
     P10RmFL KC2019 09 05$ihere+TsQFfor_Wo!h9n/eutlt-JTe^Bg7df-KJp];',oEd$d`yH21
     P10RmFL KC2019 09 0604`5iKsemdO37^*=;!TV\`M,+70IQexplanationcZfIo/OBNv,$H21
     P10RmFL KC2019 09 06/g;mq2bLg?/MFo3]%\iCpUFeOal%nJ4[?\,,DYs=Bc7g!pJjmtynH21
     P10RmFL KC2019 09 06`qwG=#ohkPaM7mrJ@5luS]bT-fDUawI!nH1#ryo;v9.HcO^/$klfH21

Station data:
(F51) Pan-STARRS 1, Haleakala  (N20.707235 W156.255910)  US/Hawaii.
   Observers N. Primak, A. Schultz, S. Watters, J. Thiel, T. Goggia. Measurer
   PS1 Science Consortium. 1.8-m Ritchey-Chrétien + CCD.
(H21) Astronomical Research Observatory, Westfield  (N39.483057 W87.968270)
   US/Illinois. 0.76-m f/3.0 astrograph + CCD.

Orbital elements:  P10RmFL
   Perihelion 2019 Sep 4.132096 +/- 8.43 TT =  3:10:13 (JD 2458730.632096)
Epoch 2019 Sep  6.0 TT = JDT 2458732.5   Earth MOID: 0.4722   AutoNEOCP
M   0.36451748 +/- 1.2              (J2000 ecliptic)
n   0.19514790 +/- 0.0537           Peri.  101.41429 +/- 10
a   2.94369936 +/- 0.539            Node   251.45529 +/- 4.8
e   0.5064112 +/- 0.0849            Incl.    7.30618 +/- 0.16
P   5.05                   H 21.6   G  0.15   U 10.8  
q 1.45297690 +/- 0.0212    Q 4.43442182 +/- 1.32
From 9 observations 2019 Sept. 4-6 (41.6 hr); mean residual 0".09
Residuals in arcseconds: 
190904 F51  .03-  .06-    190905 H21  .14+  .11+    190906 H21  .09+  .04+    
190904 F51  .03+  .02-    190905 H21  .16-  .08-    190906 H21  .14-  .13-    
190904 F51  .00   .08+    190905 H21  .01+  .04-    190906 H21  .05+  .10+    

Ephemerides (geocentric):
Date (UTC) HH   RA              Dec         delta   r     elong  mag " sig PA
---- -- -- --  -------------   -----------  ------ ------ -----  --- ---- ---
2019 09 12 12  00 37 14.580   +25 59 13.18  .51377 1.4555 144.4 22.0 18.2  85
2019 09 12 13  00 37 15.951   +25 59 21.65  .51370 1.4555 144.5 22.0 18.4  85
2019 09 12 14  00 37 17.320   +25 59 30.07  .51363 1.4555 144.5 22.0 18.6  86
2019 09 12 15  00 37 18.685   +25 59 38.42  .51356 1.4555 144.5 22.0 18.8  86
2019 09 12 16  00 37 20.047   +25 59 46.71  .51349 1.4556 144.5 22.0 19.0  86
2019 09 12 17  00 37 21.407   +25 59 54.93  .51342 1.4556 144.6 22.0 19.2  86
2019 09 12 18  00 37 22.764   +26 00 03.10  .51335 1.4556 144.6 22.0 19.4  86
2019 09 12 19  00 37 24.118   +26 00 11.20  .51328 1.4556 144.6 22.0 19.6  86
2019 09 12 20  00 37 25.469   +26 00 19.23  .51321 1.4557 144.7 22.0 19.9  87
2019 09 12 21  00 37 26.817   +26 00 27.20  .51314 1.4557 144.7 22.0 20.1  87
2019 09 12 22  00 37 28.162   +26 00 35.11  .51307 1.4557 144.7 22.0 20.3  87
2019 09 12 23  00 37 29.505   +26 00 42.96  .51301 1.4557 144.7 22.0 20.5  87
2019 09 13 00  00 37 30.845   +26 00 50.74  .51294 1.4558 144.8 22.0 20.7  87
2019 09 13 01  00 37 32.182   +26 00 58.46  .51287 1.4558 144.8 22.0 20.9  87
2019 09 13 02  00 37 33.516   +26 01 06.11  .51280 1.4558 144.8 22.0 21.2  88
2019 09 13 03  00 37 34.847   +26 01 13.70  .51273 1.4558 144.9 22.0 21.4  88
2019 09 13 04  00 37 36.176   +26 01 21.23  .51266 1.4559 144.9 22.0 21.6  88
2019 09 13 05  00 37 37.501   +26 01 28.70  .51260 1.4559 144.9 22.0 21.8  88
2019 09 13 06  00 37 38.824   +26 01 36.10  .51253 1.4559 144.9 22.0 22.0  88
2019 09 13 07  00 37 40.144   +26 01 43.43  .51246 1.4559 145.0 22.0 22.3  88
2019 09 13 08  00 37 41.461   +26 01 50.71  .51240 1.4560 145.0 22.0 22.5  89
2019 09 13 09  00 37 42.776   +26 01 57.92  .51233 1.4560 145.0 22.0 22.7  89
2019 09 13 10  00 37 44.087   +26 02 05.07  .51226 1.4560 145.1 22.0 22.9  89
2019 09 13 11  00 37 45.396   +26 02 12.15  .51220 1.4561 145.1 22.0 23.2  89
2019 09 13 12  00 37 46.702   +26 02 19.17  .51213 1.4561 145.1 22.0 23.4  89
2019 09 13 13  00 37 48.005   +26 02 26.12  .51206 1.4561 145.1 22.0 23.6  89
2019 09 13 14  00 37 49.305   +26 02 33.02  .51200 1.4561 145.2 22.0 23.9  90
2019 09 13 15  00 37 50.603   +26 02 39.85  .51193 1.4562 145.2 22.0 24.1  90
2019 09 13 16  00 37 51.898   +26 02 46.61  .51187 1.4562 145.2 22.0 24.3  90
2019 09 13 17  00 37 53.190   +26 02 53.31  .51180 1.4562 145.2 22.0 24.6  90
2019 09 13 18  00 37 54.479   +26 02 59.95  .51174 1.4563 145.3 22.0 24.8  90
2019 09 13 19  00 37 55.765   +26 03 06.53  .51167 1.4563 145.3 22.0 25.0  90
2019 09 13 20  00 37 57.049   +26 03 13.04  .51161 1.4563 145.3 22.0 25.3  91
2019 09 13 21  00 37 58.330   +26 03 19.48  .51154 1.4563 145.4 22.0 25.5  91
2019 09 13 22  00 37 59.608   +26 03 25.87  .51148 1.4564 145.4 22.0 25.7  91
2019 09 13 23  00 38 00.883   +26 03 32.19  .51141 1.4564 145.4 22.0 26.0  91
2019 09 14 00  00 38 02.155   +26 03 38.44  .51135 1.4564 145.4 22.0 26.2  91
2019 09 14 01  00 38 03.425   +26 03 44.64  .51129 1.4565 145.5 22.0 26.5  91
2019 09 14 02  00 38 04.692   +26 03 50.76  .51122 1.4565 145.5 22.0 26.7  92
2019 09 14 03  00 38 05.956   +26 03 56.83  .51116 1.4565 145.5 22.0 27.0  92
2019 09 14 04  00 38 07.217   +26 04 02.83  .51110 1.4565 145.6 22.0 27.2  92
2019 09 14 05  00 38 08.476   +26 04 08.77  .51103 1.4566 145.6 22.0 27.4  92
2019 09 14 06  00 38 09.731   +26 04 14.64  .51097 1.4566 145.6 22.0 27.7  92
2019 09 14 07  00 38 10.984   +26 04 20.45  .51091 1.4566 145.6 22.0 27.9  92
2019 09 14 08  00 38 12.234   +26 04 26.20  .51085 1.4567 145.7 22.0 28.2  93
2019 09 14 09  00 38 13.482   +26 04 31.88  .51079 1.4567 145.7 22.0 28.4  93
2019 09 14 10  00 38 14.727   +26 04 37.50  .51072 1.4567 145.7 22.0 28.7  93
2019 09 14 11  00 38 15.969   +26 04 43.05  .51066 1.4568 145.8 22.0 29.0  93